When you browse on this site, cookies collect data to enhance your experience and personalize the content and advertising you see.
Visit our Privacy Policy to learn more. By continuing to use the site, you agree to this use of cookies and data.
  • Em Portugal
  • Lista de países
  • Para 7 dias
  • Temperatura da água
  • Mapa do tempo
  • Widgets de tempo
  • user-avatar
    Iniciar Sessão

    Previsão horária em Staraya Mihaylovka

    Hoje, 31 Maio, Domingo

    Tempo Temperatura Precipitação Vento Pressão Humidade
    00:00 +17°C° 0.1 mm 2 m/s 743 mmHg 93%
    01:00 +17°C° 0.2 mm 3 m/s 743 mmHg 94%
    02:00 +17°C° 0.2 mm 4 m/s 743 mmHg 94%
    03:00 +15°C° 0 mm 4 m/s 743 mmHg 95%
    04:00 +15°C° 0.2 mm 4 m/s 743 mmHg 95%
    05:00 +15°C° 0.2 mm 4 m/s 742 mmHg 94%
    06:00 +14°C° 0.2 mm 5 m/s 742 mmHg 93%
    07:00 +16°C° 0 mm 5 m/s 742 mmHg 89%
    08:00 +17°C° 0 mm 5 m/s 741 mmHg 84%
    09:00 +19°C° 0 mm 5 m/s 742 mmHg 79%
    10:00 +19°C° 0.4 mm 5 m/s 741 mmHg 77%
    11:00 +20°C° 0.4 mm 6 m/s 741 mmHg 75%
    12:00 +20°C° 0.4 mm 6 m/s 741 mmHg 73%
    13:00 +20°C° 0.6 mm 6 m/s 741 mmHg 72%
    14:00 +20°C° 0.6 mm 6 m/s 741 mmHg 72%
    15:00 +20°C° 0 mm 5 m/s 741 mmHg 71%
    16:00 +19°C° 0.8 mm 5 m/s 741 mmHg 74%
    17:00 +19°C° 0.8 mm 5 m/s 740 mmHg 78%
    18:00 +17°C° 0.8 mm 5 m/s 740 mmHg 82%
    19:00 +17°C° 0.7 mm 4 m/s 740 mmHg 84%
    20:00 +15°C° 0.7 mm 4 m/s 741 mmHg 87%
    21:00 +13°C° 0.7 mm 4 m/s 741 mmHg 90%
    22:00 +13°C° 0.1 mm 4 m/s 741 mmHg 91%
    23:00 +12°C° 0.1 mm 4 m/s 741 mmHg 93%

    Amanhã, 1 Junho, Segunda-feira

    Tempo Temperatura Precipitação Vento Pressão Humidade
    00:00 +12°C° 0.1 mm 3 m/s 741 mmHg 95%
    01:00 +12°C° 0 mm 4 m/s 741 mmHg 95%
    02:00 +11°C° 0 mm 4 m/s 741 mmHg 96%
    03:00 +11°C° 0 mm 4 m/s 742 mmHg 96%
    04:00 +12°C° 0 mm 4 m/s 742 mmHg 95%
    05:00 +12°C° 0 mm 4 m/s 742 mmHg 94%
    06:00 +12°C° 0 mm 4 m/s 742 mmHg 94%
    07:00 +13°C° 0 mm 3 m/s 742 mmHg 92%
    08:00 +13°C° 0 mm 3 m/s 743 mmHg 90%
    09:00 +14°C° 0 mm 3 m/s 744 mmHg 89%
    10:00 +16°C° 0.1 mm 3 m/s 744 mmHg 85%
    11:00 +17°C° 0.1 mm 3 m/s 744 mmHg 81%
    12:00 +17°C° 0.1 mm 2 m/s 744 mmHg 78%
    13:00 +18°C° 0.8 mm 2 m/s 745 mmHg 77%
    14:00 +18°C° 0.8 mm 2 m/s 745 mmHg 76%
    15:00 +19°C° 0.8 mm 2 m/s 745 mmHg 76%
    16:00 +18°C° 1.1 mm 3 m/s 745 mmHg 80%
    17:00 +17°C° 1.1 mm 3 m/s 745 mmHg 84%
    18:00 +15°C° 1.1 mm 4 m/s 745 mmHg 88%
    19:00 +14°C° 0.1 mm 4 m/s 746 mmHg 91%
    20:00 +13°C° 0.1 mm 4 m/s 746 mmHg 93%
    21:00 +13°C° 0.1 mm 4 m/s 746 mmHg 95%
    22:00 +12°C° 0 mm 4 m/s 746 mmHg 96%
    23:00 +12°C° 0 mm 4 m/s 746 mmHg 96%

    Depois de amanhã, 2 Junho, Terça-feira

    Tempo Temperatura Precipitação Vento Pressão Humidade
    00:00 +11°C° 0 mm 4 m/s 746 mmHg 97%
    01:00 +11°C° 0 mm 4 m/s 746 mmHg 97%
    02:00 +11°C° 0 mm 4 m/s 746 mmHg 96%
    03:00 +12°C° 0 mm 4 m/s 747 mmHg 95%
    04:00 +10°C° 0 mm 5 m/s 746 mmHg 95%
    05:00 +10°C° 0 mm 5 m/s 746 mmHg 95%
    06:00 +10°C° 0 mm 5 m/s 746 mmHg 95%
    07:00 +12°C° 0.1 mm 4 m/s 746 mmHg 94%
    08:00 +12°C° 0.1 mm 4 m/s 747 mmHg 94%
    09:00 +13°C° 0.1 mm 4 m/s 747 mmHg 93%
    10:00 +13°C° 0.2 mm 4 m/s 747 mmHg 92%
    11:00 +14°C° 0.2 mm 4 m/s 747 mmHg 92%
    12:00 +16°C° 0.2 mm 3 m/s 747 mmHg 91%
    13:00 +16°C° 1.2 mm 3 m/s 747 mmHg 92%
    14:00 +14°C° 1.2 mm 3 m/s 747 mmHg 93%
    15:00 +14°C° 1.2 mm 3 m/s 747 mmHg 94%
    16:00 +14°C° 0.2 mm 3 m/s 746 mmHg 94%
    17:00 +14°C° 0.2 mm 3 m/s 746 mmHg 94%
    18:00 +14°C° 0.2 mm 4 m/s 746 mmHg 93%
    19:00 +14°C° 0 mm 4 m/s 746 mmHg 94%
    20:00 +13°C° 0 mm 4 m/s 746 mmHg 95%
    21:00 +13°C° 0 mm 4 m/s 746 mmHg 96%
    22:00 +12°C° 0 mm 4 m/s 746 mmHg 96%
    23:00 +12°C° 0 mm 4 m/s 746 mmHg 97%

    3 Junho, Quarta-feira

    Tempo Temperatura Precipitação Vento Pressão Humidade
    00:00 +12°C° 0 mm 4 m/s 746 mmHg 97%
    01:00 +12°C° 0.1 mm 4 m/s 746 mmHg 97%
    02:00 +12°C° 0.1 mm 4 m/s 746 mmHg 97%
    03:00 +12°C° 0.1 mm 3 m/s 746 mmHg 97%
    04:00 +13°C° 0 mm 4 m/s 746 mmHg 96%
    05:00 +13°C° 0 mm 4 m/s 746 mmHg 95%
    06:00 +13°C° 0 mm 4 m/s 746 mmHg 95%
    07:00 +14°C° 0 mm 5 m/s 746 mmHg 94%
    08:00 +14°C° 0 mm 5 m/s 746 mmHg 93%
    09:00 +14°C° 0 mm 5 m/s 746 mmHg 92%
    10:00 +15°C° 0 mm 6 m/s 746 mmHg 90%
    11:00 +16°C° 0 mm 6 m/s 746 mmHg 88%
    12:00 +17°C° 0 mm 6 m/s 746 mmHg 86%
    13:00 +17°C° 0 mm 6 m/s 746 mmHg 84%
    14:00 +19°C° 0 mm 6 m/s 746 mmHg 83%
    15:00 +19°C° 0 mm 6 m/s 746 mmHg 82%
    16:00 +19°C° 0.3 mm 6 m/s 746 mmHg 83%
    17:00 +19°C° 0.3 mm 6 m/s 746 mmHg 85%
    18:00 +17°C° 0.3 mm 5 m/s 745 mmHg 87%
    19:00 +17°C° 0.6 mm 6 m/s 745 mmHg 89%
    20:00 +16°C° 0.6 mm 6 m/s 745 mmHg 91%
    21:00 +15°C° 0.6 mm 7 m/s 745 mmHg 92%
    22:00 +15°C° 0.4 mm 6 m/s 745 mmHg 92%
    23:00 +14°C° 0.4 mm 4 m/s 745 mmHg 93%

    4 Junho, Quinta-feira

    Tempo Temperatura Precipitação Vento Pressão Humidade
    00:00 +14°C° 0.4 mm 3 m/s 745 mmHg 93%
    01:00 +13°C° 4 mm 4 m/s 745 mmHg 94%
    02:00 +13°C° 4 mm 6 m/s 745 mmHg 95%
    03:00 +12°C° 4 mm 7 m/s 745 mmHg 95%
    04:00 +12°C° 1.8 mm 7 m/s 745 mmHg 95%
    05:00 +12°C° 1.8 mm 7 m/s 745 mmHg 95%
    06:00 +11°C° 1.8 mm 7 m/s 745 mmHg 94%
    07:00 +11°C° 3 mm 7 m/s 745 mmHg 95%
    08:00 +11°C° 3 mm 7 m/s 745 mmHg 95%
    09:00 +11°C° 3 mm 7 m/s 745 mmHg 95%
    10:00 +11°C° 2.6 mm 7 m/s 745 mmHg 95%
    11:00 +11°C° 2.6 mm 7 m/s 745 mmHg 94%
    12:00 +12°C° 2.6 mm 7 m/s 745 mmHg 94%
    13:00 +13°C° 1.8 mm 6 m/s 745 mmHg 95%
    14:00 +14°C° 1.8 mm 6 m/s 745 mmHg 95%
    15:00 +14°C° 1.8 mm 5 m/s 745 mmHg 95%
    16:00 +14°C° 0.9 mm 6 m/s 745 mmHg 95%
    17:00 +15°C° 0.9 mm 6 m/s 745 mmHg 94%
    18:00 +15°C° 0.9 mm 6 m/s 744 mmHg 93%
    19:00 +15°C° 0 mm 5 m/s 744 mmHg 93%
    20:00 +14°C° 0 mm 4 m/s 744 mmHg 94%
    21:00 +14°C° 0 mm 3 m/s 744 mmHg 94%
    22:00 +15°C° 0 mm 2 m/s 744 mmHg 95%
    23:00 +15°C° 0 mm 2 m/s 744 mmHg 96%

    5 Junho, Sexta-feira

    Tempo Temperatura Precipitação Vento Pressão Humidade
    00:00 +14°C° 0 mm 1 m/s 744 mmHg 96%
    01:00 +14°C° 0 mm 1 m/s 744 mmHg 96%
    02:00 +14°C° 0 mm 1 m/s 744 mmHg 96%
    03:00 +14°C° 0 mm 1 m/s 744 mmHg 96%
    04:00 +14°C° 0 mm 1 m/s 744 mmHg 96%
    05:00 +15°C° 0 mm 1 m/s 744 mmHg 96%
    06:00 +15°C° 0 mm 2 m/s 744 mmHg 95%
    07:00 +16°C° 0 mm 1 m/s 744 mmHg 93%
    08:00 +18°C° 0 mm 1 m/s 744 mmHg 90%
    09:00 +19°C° 0 mm 1 m/s 745 mmHg 88%
    10:00 +20°C° 0.4 mm 1 m/s 745 mmHg 85%
    11:00 +20°C° 0.4 mm 2 m/s 745 mmHg 82%
    12:00 +21°C° 0.4 mm 2 m/s 745 mmHg 79%
    13:00 +21°C° 1.1 mm 2 m/s 745 mmHg 79%
    14:00 +21°C° 1.1 mm 3 m/s 745 mmHg 79%
    15:00 +21°C° 1.1 mm 4 m/s 745 mmHg 79%
    16:00 +21°C° 0.6 mm 3 m/s 745 mmHg 81%
    17:00 +20°C° 0.6 mm 3 m/s 745 mmHg 82%
    18:00 +20°C° 0.6 mm 3 m/s 745 mmHg 83%
    19:00 +18°C° 0.1 mm 2 m/s 745 mmHg 85%
    20:00 +17°C° 0.1 mm 2 m/s 745 mmHg 86%
    21:00 +15°C° 0.1 mm 2 m/s 746 mmHg 88%
    22:00 +15°C° 0 mm 2 m/s 746 mmHg 89%
    23:00 +14°C° 0 mm 2 m/s 746 mmHg 90%
    Mostrar mais